Flag for U.S.A. Weather past 2 weeks in Spokane, Washington, U.S.A.

Now
39 °F

Clear.


Feels Like: 33 °F
Forecast: 35 / 52 °F
Wind: 9 mph from Southwest

Location: Felts Field

Current Time: Apr 1, 2015 at 1:52:36 AM

Latest Report: Apr 1, 2015 at 12:53 AM


Visibility: 10 mi

Pressure: 30.01 "Hg

Humidity: 57%

Dew point: 25 °F

Location of SpokaneLocation

Historic Weather in Spokane — Graph

°F

Spokane temperature yesterday

Maximum temperature yesterday: 57 °F (at 11:53 AM)
Minimum temperature yesterday: 40 °F (at 11:53 PM)
Average temperature yesterday: 50 °F

Past Weeks' High & Low Weather Summary

 TemperatureHumidityPressure
High73 °F (Mar 27, 3:53 PM)97% (Mar 27, 7:53 AM)30.36 "Hg (Mar 27, 7:53 AM)
Low34 °F (Mar 22, 6:53 AM)25% (Mar 31, 5:53 PM)29.77 "Hg (Mar 31, 4:53 AM)
Average49 °F70%30.08 "Hg
* Reported Mar 16 11:53 PM — Mar 31 11:53 PM, Spokane, Weather by CustomWeather, © 2015

Note: Actual official high and low records may vary slightly from our data, if they occured in-between our weather recording intervals... More about our weather records

Advertising

Spokane weather history for previous 24 hours

 ConditionsComfort  
Time TempWeatherWind HumidityBarometerVisibility
11:53 PM
Tue, Mar 31
40 °FClear.7 mph55%29.99 "Hg10 mi
10:53 PM42 °FClear.5 mph49%29.97 "Hg10 mi
9:53 PM45 °FClear.12 mph42%29.95 "Hg10 mi
8:53 PM47 °FClear.13 mph36%29.92 "Hg10 mi
7:53 PM49 °FSunny.14 mph33%29.90 "Hg10 mi
6:53 PM52 °FPassing clouds.16 mph31%29.88 "Hg10 mi
5:53 PM54 °FSunny.21 mph25%29.87 "Hg10 mi
4:53 PM56 °FScattered clouds.17 mph27%29.86 "Hg10 mi
3:53 PM56 °FSunny.14 mph28%29.85 "Hg10 mi
2:53 PM56 °FScattered clouds.13 mph29%29.85 "Hg10 mi
1:53 PM54 °FMostly cloudy.25 mph45%29.85 "Hg10 mi
12:53 PM57 °FPartly sunny.24 mph37%29.83 "Hg10 mi
11:53 AM57 °FPartly sunny.16 mph49%29.84 "Hg10 mi
10:53 AM53 °FPartly sunny.14 mph59%29.84 "Hg10 mi
9:53 AM51 °FOvercast.7 mph66%29.83 "Hg10 mi
8:53 AM50 °FMostly cloudy.9 mph66%29.83 "Hg10 mi
7:53 AM49 °FOvercast.10 mph69%29.82 "Hg10 mi
6:53 AM50 °FClear.9 mph63%29.80 "Hg10 mi
5:53 AM47 °FClear.No wind74%29.78 "Hg10 mi
4:53 AM45 °FClear.3 mph80%29.77 "Hg10 mi
3:53 AM46 °FClear.6 mph77%29.78 "Hg10 mi
2:53 AM45 °FClear.5 mph80%29.79 "Hg10 mi
1:53 AM43 °FClear.5 mph86%29.80 "Hg10 mi
Weather by CustomWeather, © 2015

See weather overviewHow to use our weather pages